Wind_Speed
8 5 1 1 4 6 8 7 10 12 10 14 11 13 13 16 18 18 18 19 20 19 21 22 25 25 26
6 2 1 2 2 4 3 6 10 10 13 12 13 12 16 17 17 16 17 20 18 20 22 24 24 24 26
5 3 2 2 2 2 3 10 12 14 17 12 12 18 17 17 17 17 20 18 19 22 23 22 24 26 27
4 2 1 2 4 5 8 12 17 17 10 11 20 18 18 17 19 20 17 20 22 21 21 22 25 26 28
3 1 2 4 5 7 12 16 18 8 12 24 24 23 22 21 21 21 23 22 20 18 21 25 26 28 30
3 2 3 4 7 9 11 14 5 9 22 28 24 27 23 22 25 24 21 18 16 21 25 25 28 29 30
2 2 3 5 9 13 13 12 15 19 19 21 26 24 24 31 26 20 16 15 23 26 25 27 28 30 30
2 2 4 8 10 9 11 14 16 19 19 16 18 23 30 28 16 13 11 24 25 24 27 29 27 29 29
1 4 7 7 6 10 13 12 10 14 15 11 16 30 25 14 13 7 27 23 24 25 28 25 25 28 31
4 6 5 6 10 9 7 11 10 10 4 20 19 19 13 11 10 29 32 25 26 28 24 22 25 28 32
4 4 6 7 10 11 11 11 12 12 20 16 15 20 11 21 19 27 24 31 33 30 22 27 26 26 29
4 6 8 10 11 11 10 11 13 16 19 18 19 22 20 23 23 21 31 29 29 26 27 32 32 28 25
4 6 8 12 11 11 11 14 16 17 19 16 18 19 21 22 24 27 29 22 20 26 33 33 34 32 32
4 8 11 12 13 13 17 21 24 24 20 18 17 17 21 24 26 27 27 17 32 35 34 34 33 31 29
7 9 12 14 16 17 20 22 21 20 23 21 21 22 22 22 25 28 31 32 33 34 34 29 34 31 28
7 9 13 16 18 19 20 20 21 17 20 26 27 27 23 19 20 28 28 28 31 32 30 26 26 31 29
8 11 15 16 16 19 20 21 17 18 25 25 24 23 14 9 27 19 26 30 28 27 29 28 27 32 30
Wind_Direction
149 154 141 21 356 3 357 354 355 359 347 342 335 332 329 332 330 329 330 329 328 328 327 324 321 320 320
161 146 99 9 353 353 346 334 341 338 338 338 326 328 327 325 327 327 325 326 326 323 322 320 319 318 317
156 153 141 78 66 55 325 318 325 330 334 332 332 326 328 326 327 324 323 324 320 317 317 316 316 317 317
134 147 177 34 4 5 335 323 321 326 326 328 329 328 329 325 323 323 324 320 316 316 315 315 316 315 315
136 208 352 9 0 336 326 331 331 337 332 331 332 329 330 327 327 325 320 318 316 317 316 315 313 312 311
136 44 359 338 328 331 331 330 326 331 327 320 326 322 327 326 324 315 317 319 320 321 319 316 314 313 312
126 282 293 328 326 320 319 317 308 317 318 313 320 316 324 323 327 316 320 324 323 321 321 319 316 313 312
88 32 346 332 317 316 320 316 312 315 326 299 314 319 319 324 333 322 325 324 322 321 321 320 316 315 312
345 305 307 312 335 313 323 333 324 320 326 329 321 321 318 321 328 301 321 323 319 320 319 318 318 316 313
322 323 324 323 320 327 341 340 329 326 307 331 318 336 322 314 304 322 325 327 320 319 319 320 322 320 316
347 14 344 335 319 315 326 325 321 302 309 318 308 319 300 304 308 313 319 316 326 326 327 327 322 318 312
349 346 342 342 346 341 335 330 325 312 318 315 299 305 298 298 299 308 312 317 321 317 325 325 324 321 316
349 346 347 338 335 338 337 330 322 315 319 319 310 308 303 289 292 304 312 316 325 320 321 324 322 327 324
1 347 343 348 349 351 346 344 335 328 329 328 325 322 311 307 304 298 304 300 312 320 320 318 323 325 326
353 359 351 349 346 347 345 339 329 311 320 331 333 329 321 313 297 297 302 303 311 311 316 313 319 324 325
357 349 348 346 342 336 333 331 324 311 312 328 328 329 324 318 310 302 304 304 308 312 314 308 310 319 322
338 349 345 335 325 327 329 328 316 307 317 323 325 322 310 304 314 312 307 307 310 305 310 307 300 310 319
Height
868 869 869 870 870 869 869 869 868 867 868 864 864 862 859 856 854 852 849 847 844 842 839 836 832 829 824
867 868 869 870 869 868 868 869 866 866 864 863 862 860 858 853 849 847 845 844 840 839 836 832 828 824 821
865 866 867 867 866 865 866 867 866 863 861 861 861 858 855 852 849 846 840 839 837 835 832 828 823 820 816
865 866 868 865 863 863 864 865 861 858 857 857 855 853 851 848 845 842 838 835 833 830 827 823 819 815 811
865 867 865 862 862 863 863 862 858 856 854 853 852 848 848 844 840 837 834 831 828 825 822 818 814 810 805
865 866 866 866 866 863 860 858 858 855 852 850 847 846 843 840 836 833 830 827 824 821 817 813 809 804 800
861 864 865 864 864 864 860 857 856 854 852 845 846 841 839 836 832 828 825 823 819 815 812 808 803 798 794
863 866 864 863 863 860 858 857 852 851 849 845 841 836 833 830 827 824 822 819 815 811 807 802 798 793 788
860 862 861 862 859 857 855 854 851 848 846 844 838 832 828 823 822 820 819 815 812 808 803 798 793 788 781
859 861 858 857 858 856 852 852 852 846 846 843 839 836 825 819 818 816 813 810 807 802 798 794 790 783 777
857 856 857 855 858 857 850 850 849 847 845 844 838 836 835 823 815 812 809 805 800 795 792 789 785 781 773
855 856 855 855 854 851 849 848 846 844 842 840 836 834 831 824 815 808 805 800 795 790 787 783 778 774 769
855 855 854 852 850 847 845 844 842 840 837 835 833 829 827 822 814 807 800 793 790 787 782 777 772 767 760
853 852 850 849 847 845 843 840 836 833 833 832 830 826 821 816 811 803 799 795 787 782 777 772 767 763 758
850 849 848 847 845 843 840 837 837 833 828 826 824 821 817 811 805 800 794 788 784 778 773 767 761 757 753
848 848 846 843 841 841 840 838 835 831 826 822 819 815 810 806 804 795 791 785 779 774 770 764 757 752 749
847 845 843 843 842 839 838 836 833 829 824 820 816 813 808 802 796 794 787 780 774 769 765 761 755 748 744